2024-247C

Last updated on Wed Jan 15 2025 00:02:04 GMT+0000 (Coordinated Universal Time)

1 62379U 24247C 25013.74337307 .00007069 00000+0 34237-3 0 9994 2 62379 45.0084 235.6034 0002229 174.7876 185.3027 15.19204640 3683
UTC large
Height (km)
Speed (km/s)
/
Latitude / Longitude
Inclination (degrees)
Orbital Period (minutes)
Azimuth
Elevation
Range (km)
Doppler Factor

Next 0 passes for location: London (51.5072 / 0.1276)

Sorry there are no passes over London.